Location: Observatoire de Paris
(48.8363°N, 2.3365°E)
Time: 00:07:28
(UTC+01:00)

Tiros 1 - All Passes

Search period start: 29 July 2021 00:00
Search period end: 08 August 2021 00:00
Orbit: 630 x 663 km, 48.4° (Epoch: 28 July)

Date Brightness Start Highest point End Pass type
(mag) Time Alt. Az. Time Alt. Az. Time Alt. Az.
29 Jul - 00:09:19 10° W 00:14:02 73° SSW 00:18:41 10° ESE visible
29 Jul - 01:51:44 10° W 01:55:49 30° SSW 01:59:52 10° SSE visible
29 Jul - 19:30:02 10° SSW 19:33:56 25° SE 19:37:50 10° E daylight
29 Jul - 21:10:56 10° WSW 21:15:39 66° SSE 21:20:20 10° E visible
29 Jul - 22:53:04 10° W 22:57:49 86° S 23:02:31 10° E visible
30 Jul - 00:35:19 10° W 00:39:53 52° SSW 00:44:24 10° SE visible
30 Jul - 02:18:22 10° W 02:21:21 17° SW 02:24:17 10° S visible
30 Jul - 18:16:11 10° SSE 18:18:16 13° SE 18:20:19 10° ESE daylight
30 Jul - 19:55:06 10° SW 19:59:36 42° SSE 20:04:04 10° E daylight
30 Jul - 21:36:48 10° W 21:41:35 82° S 21:46:18 10° E visible
30 Jul - 23:19:02 10° W 23:23:46 75° SSW 23:28:26 10° ESE visible
31 Jul - 01:01:26 10° W 01:05:36 32° SSW 01:09:43 10° SSE visible
31 Jul - 18:39:54 10° SSW 18:43:43 24° SE 18:47:31 10° E daylight
31 Jul - 20:20:40 10° WSW 20:25:24 64° SSE 20:30:05 10° E daylight
31 Jul - 22:02:47 10° W 22:07:33 86° S 22:12:16 10° E visible
31 Jul - 23:45:02 10° W 23:49:39 54° SSW 23:54:11 10° SE visible
01 Aug - 01:27:58 10° W 01:31:08 18° SW 01:34:17 10° S visible
01 Aug - 17:26:22 10° SSE 17:28:03 12° SE 17:29:44 10° ESE daylight
01 Aug - 19:04:53 10° SW 19:09:21 40° SSE 19:13:48 10° E daylight
01 Aug - 20:46:32 10° WSW 20:51:19 81° S 20:56:03 10° E daylight
01 Aug - 22:28:46 10° W 22:33:30 77° SSW 22:38:12 10° ESE visible
02 Aug - 00:11:07 10° W 00:15:22 34° SSW 00:19:34 10° SSE visible
02 Aug - 17:49:47 10° SSW 17:53:29 23° SE 17:57:12 10° E daylight
02 Aug - 19:30:25 10° WSW 19:35:09 62° SSE 19:39:50 10° E daylight
02 Aug - 21:12:30 10° W 21:17:17 87° S 21:22:01 10° E visible
02 Aug - 22:54:45 10° W 22:59:23 57° SSW 23:03:59 10° ESE visible
03 Aug - 00:37:35 10° W 00:40:56 19° SW 00:44:15 10° S visible
03 Aug - 16:36:42 10° SSE 16:37:51 11° SE 16:39:00 10° ESE daylight
03 Aug - 18:14:40 10° SW 18:19:07 38° SSE 18:23:31 10° E daylight
03 Aug - 19:56:15 10° WSW 20:01:02 80° S 20:05:47 10° E daylight
03 Aug - 21:38:29 10° W 21:43:15 78° S 21:47:57 10° ESE visible
03 Aug - 23:20:49 10° W 23:25:09 36° SSW 23:29:25 10° SE visible
04 Aug - 16:59:40 10° S 17:03:16 21° SE 17:06:52 10° E daylight
04 Aug - 18:40:10 10° WSW 18:44:53 59° SSE 18:49:34 10° E daylight
04 Aug - 20:22:13 10° W 20:27:01 87° S 20:31:46 10° E daylight
04 Aug - 22:04:27 10° W 22:09:09 59° SSW 22:13:46 10° ESE visible
04 Aug - 23:47:13 10° W 23:50:43 21° SW 23:54:12 10° S visible
05 Aug - 17:24:28 10° SW 17:28:51 36° SSE 17:33:14 10° E daylight
05 Aug - 19:05:58 10° WSW 19:10:46 78° S 19:15:32 10° E daylight
05 Aug - 20:48:12 10° W 20:52:59 80° S 20:57:42 10° ESE visible
05 Aug - 22:30:31 10° W 22:34:54 38° SSW 22:39:15 10° SE visible
06 Aug - 00:15:17 10° WSW 00:16:07 10° SW 00:16:57 10° SW visible
06 Aug - 16:09:35 10° S 16:13:03 20° SE 16:16:31 10° E daylight
06 Aug - 17:49:55 10° WSW 17:54:37 57° SSE 17:59:18 10° E daylight
06 Aug - 19:31:55 10° W 19:36:44 87° S 19:41:30 10° E daylight
06 Aug - 21:14:10 10° W 21:18:53 62° SSW 21:23:32 10° ESE visible
06 Aug - 22:56:51 10° W 23:00:30 22° SW 23:04:07 10° SSE visible
07 Aug - 16:34:17 10° SSW 16:38:37 34° SSE 16:42:57 10° E daylight
07 Aug - 18:15:42 10° WSW 18:20:30 77° SSE 18:25:17 10° E daylight
07 Aug - 19:57:54 10° W 20:02:43 81° S 20:07:28 10° ESE daylight
07 Aug - 21:40:13 10° W 21:44:40 40° SSW 21:49:04 10° SE visible
07 Aug - 23:24:23 10° WSW 23:25:55 11° SW 23:27:28 10° SSW visible
